www.pogodaiklimat.ru

Погода и климат >> Архив погоды >> Россия >> Волгоградская область >> Волгоград


АРХИВ ПОГОДЫ в Волгограде

Время (UTC), дата Ветер
(напр.,м/с)
 
Видим.   Явления Облачность Т
(С)
Тd
(С)
f
(%)
Тe
(С)
Тes
(С)
Комфортность P
(гПа)
Po
(гПа)
Тmin
(С)
Tmax
(С)
R
(мм)
R24
(мм)
S
(см)
09 21.04 В 4
{10}
10 км 5/0
[Ac trans]
+5.3 -3.9 51 +2 +8 очень
холодно
1020.3 1001.2
12 21.04 ЮВ 6
{10}
10 км 8/0
[Ac trans]
+7.4 -2.0 51 +4 +5 очень
холодно
1017.1 998.2
15 21.04 В 6 10 км 9/9 1000 м
[Sc]
+7.0 -1.6 54 +3 +3 очень
холодно
1014.7 995.9 +7.7
18 21.04 В 3 10 км в посл. час ливневой дождь 9/9 960 м
[Cb calv]
+5.7 +1.3 73 +3 +3 прохладно 1013.2 994.3
21 21.04 ЮВ 3 10 км слабый ливневой дождь 9/9 500 м
[Cb calv]
+4.2 +3.1 93 0 0 холодно 1011.2 992.3
00 22.04 З 6
{14}
10 км слабый ливневой дождь 9/9 240 м
[Cb calv]
+3.3 +2.5 94 -3 -3 холодно 1009.8 990.8
03 22.04 ЮЗ 6 10 км {ливн. осадки} 9/9 180 м
[St]
+3.8 +3.2 96 -2 -2 очень
холодно
1008.0 989.1 +3.1
06 22.04 ЮЗ 10-14
{13}
10 км слабый ливневой дождь 9/9 450 м
[Cb calv]
+5.6 +3.6 87 -1 -1 очень
холодно
1005.5 986.8
09 22.04 З 10-15
{15}
4000 м слабый ливневой дождь 9/9 400 м
[Cb calv]
+7.0 +4.9 86 +1 +1 очень
холодно
1004.6 986.0
12 22.04 З 12-17
{17}
10 км слабый ливневой дождь 8/8 800 м
[Cb calv]
+8.4 +2.8 68 +3 +3 очень
холодно
1006.1 987.5
15 22.04 З 12-18
{18}
10 км {ливн. осадки} 8/8 720 м
[Cb calv]
+7.2 +2.4 72 +1 +1 очень
холодно
1009.1 990.4 +10.2
18 22.04 ЮЗ 7
{18}
10 км {ливн. осадки} 5/5 1000 м
[Sc]
+5.6 +2.5 80 0 0 очень
холодно
1011.6 992.7
21 22.04 -11
{11}
10 км н/о +6.8 +3.9 82 +1 +1 прохладно 1011.6 992.8
00 23.04 ЮЗ 6
{11}
10 км 4/4 1500 м
[Sc]
+5.2 +3.2 87 0 0 прохладно 1011.7 992.8
03 23.04 ЮЗ 5 10 км 3/0
[Ac trans]
+4.8 +3.5 91 -0 0 холодно 1012.5 993.6 +3.7
06 23.04 ЮЗ 6 10 км 9/9 330 м
[St]
+8.6 +5.8 83 +5 +5 прохладно 1012.7 994.0
09 23.04 ЮЗ 6 10 км 10/6 540 м
[Sc Cs]
+11.5 +5.6 67 +9 +11 прохладно 1011.5 993.0
12 23.04 Ю 6 10 км слабый ливневой дождь 9/9 1000 м
[Cb calv]
+8.4 +5.6 83 +4 +5 очень
холодно
1009.5 990.9
15 23.04 В 6 10 км в посл. час ливневой дождь {гроза} 9/9 1000 м
[Cb calv]
+6.8 +5.8 93 +2 +2 очень
холодно
1006.3 987.6 +11.8
18 23.04 СВ 5
{10}
10 км {гроза, ливн. осадки} 9/9 1000 м
[Sc]
+6.4 +5.2 92 +2 +2 холодно 1006.7 988.0
21 23.04 В 9-11
{11}
10 км слабый ливневой дождь 9/9 800 м
[Cb calv]
+6.3 +5.1 92 +1 +1 холодно 1002.7 984.1
00 24.04 В 6
{14}
4000 м слабый ливневой дождь 9/9 180 м
[Cb calv]
+6.4 +6.0 97 +2 +2 по сезону 999.2 980.6
03 24.04 ЮЗ 9-13
{13}
10 км слабый дождь {ливн. осадки} 10/8 210 м
[Frnb As op]
+6.2 +5.4 95 0 0 холодно 996.5 978.0 +5.8
06 24.04 З 8-11
{13}
10 км слабый дождь {ливн. осадки} 10/10 180 м
[Frnb Ns]
+7.6 +6.8 95 +3 +3 холодно 997.8 979.3 +5.6
09 24.04 З 11-14
{16}
10 км {ливн. осадки} 8/8 420 м
[St]
+7.4 +4.2 80 +2 +2 очень
холодно
1003.7 985.1
12 24.04 СЗ 10-13
{17}
10 км {дождь} 9/9 1000 м
[Sc]
+10.6 +3.9 63 +7 +7 очень
холодно
1006.8 988.4
15 24.04
{14}
10 км н/о +11.7 +2.8 54 +10 +10 по сезону 1009.3 990.9 +12.8
18 24.04 Ю 3
{14}
10 км 9/9 1000 м
[Sc]
+8.2 +5.4 82 +6 +6 по сезону 1011.2 992.5
21 24.04 ЮЗ 5
{13}
10 км {ливн. осадки} 9/9 930 м
[Sc]
+5.5 +2.8 83 +1 +1 холодно 1011.4 992.5
00 25.04 ЮЗ 7
{13}
10 км в посл. час ливневой дождь 9/9 240 м
[Cb calv]
+4.0 +2.9 93 -2 -2 холодно 1010.7 991.8
03 25.04 З 5 10 км 10/10 120 м
[St]
+4.3 +3.7 96 -1 -1 очень
холодно
1012.9 993.9 +3.6
06 25.04 СЗ 9-10
{15}
10 км {ливн. осадки} 9/6 400 м
[St Ac trans]
+6.6 +3.2 79 +1 +1 очень
холодно
1016.9 998.0
09 25.04 З 8-11
{14}
10 км 8/8 930 м
[Cb calv]
+9.9 +3.2 63 +6 +7 холодно 1020.0 1001.3
12 25.04 СЗ 10-14
{18}
10 км 6/6 1000 м
[Cb calv]
+12.5 -3.9 32 +10 +10 холодно 1021.3 1002.7
15 25.04 СЗ 5
{16}
10 км 5/4 1000 м
[Cb calv Ac trans]
+9.9 -1.9 44 +7 +8 прохладно 1023.7 1004.9 +13.0
18 25.04 З 1
{15}
10 км ясно +5.1 -1.2 64 +4 +4 прохладно 1026.6 1007.4
21 25.04 ЮЗ 4 10 км ясно +2.8 -1.2 75 -2 -2 очень
холодно
1027.9 1008.5
00 26.04 ЮЗ 3 10 км ясно +2.0 0.0 87 -2 -2 холодно 1028.6 1009.2
03 26.04 ЮЗ 4 10 км ясно +4.0 +2.3 89 -1 0 очень
холодно
1030.1 1010.8 +1.5
06 26.04 З 4 10 км ясно +11.6 +4.9 63 +10 +16 по сезону 1030.6 1011.8
09 26.04 ЮЗ 5 10 км 5/5 1500 м
[Cu hum]
+13.8 +1.7 44 +12 +16 по сезону 1030.4 1011.7
12 26.04 З 5 10 км 8/8 1500 м
[Cu hum]
+15.8 +1.6 38 +15 +16 по сезону 1029.8 1011.3
15 26.04 ЮЗ 5 10 км ясно +14.5 +1.4 41 +13 +14 по сезону 1029.4 1010.8 +16.3
18 26.04 Ю 3 10 км ясно +9.3 +0.6 55 +7 +7 по сезону 1030.4 1011.4
21 26.04 Ю 4 10 км ясно +6.6 +1.1 68 +3 +3 прохладно 1031.0 1011.8
00 27.04 Ю 5 10 км ясно +6.4 -0.1 63 +3 +3 по сезону 1031.3 1012.1
03 27.04 Ю 3 10 км ясно +7.3 -2.9 48 +5 +6 прохладно 1031.9 1012.8 +4.2
06 27.04 Ю 7 10 км ясно +13.0 -4.7 29 +11 +13 по сезону 1031.9 1013.1
09 27.04 Ю 9-12
{12}
10 км ясно +15.4 -1.4 32 +14 +15 по сезону 1030.9 1012.3
12 27.04 Ю 9-12
{13}
10 км ясно +17.9 -0.6 29 +17 +18 тепло 1029.3 1010.9
15 27.04 Ю 9-11
{13}
10 км ясно +17.4 -1.0 29 +16 +16 тепло 1028.3 1009.9 +18.4
18 27.04 Ю 7 10 км ясно +12.8 -0.7 39 +10 +10 по сезону 1029.0 1010.3
21 27.04 ЮВ 6
{11}
10 км ясно +9.9 -0.1 50 +7 +7 по сезону 1028.9 1010.0
00 28.04 ЮВ 6
{11}
10 км ясно +7.0 +0.7 64 +3 +3 по сезону 1028.5 1009.4
03 28.04 ЮВ 6 10 км ясно +8.1 +2.0 65 +4 +5 прохладно 1028.3 1009.3 +6.1
06 28.04 ЮВ 9-12
{11}
10 км ясно +14.7 +2.7 44 +13 +13 тепло 1027.6 1009.0

 

Местоположение метеостанции Волгоград (Волгоградская область, Россия): широта 48.78 долгота 44.37 высота над уровнем моря 134 м.

В архиве по умолчанию представлена погода в Волгограде за последнюю неделю. Архивные данные за месяц целиком и за предыдущие месяцы, начиная с января 2011 года, Вы можете получить, выбрав интересующий диапазон дат из раскрывающегося списка и нажав кнопку "Ввод!".

Внимание! Время в таблицах - всемирное. Для получения местного времени необходимо прибавить поправку, которая в Волгограде равна 3 ч.

Смотрите также архив погоды в соседних городах и на ближайших метеорологических станциях:

Погода в Волгограде город (Волгоградская область, Россия) (14 км)
Погода в Иловле (Волгоградская область, Россия) (64 км)
Погода в Калаче-на-Дону (Волгоградская область, Россия) (66 км)
Погода в Малых Дербетах (Калмыкия, Россия) (98 км)
Погода в Нижнем Чире (Волгоградская область, Россия) (105 км)
Погода в Ольховке (Волгоградская область, Россия) (122 км)
Погода в Фролове (Волгоградская область, Россия) (124 км)
Погода в Серафимовиче (Волгоградская область, Россия) (148 км)
Погода в Черный Яр (Астраханская область, Россия) (151 км)
Погода в Котельниково (Волгоградская область, Россия) (157 км)

Пояснения к столбцам:

Ветер - указаны скорость ветра в м/с - средняя за 10 мин, порывы в срок и между сроками (в фигурных скобках) и направление, откуда дует ветер: С - северный, СВ - северо-восточный, В - восточный, ЮВ - юго-восточный, Ю - южный, ЮЗ - юго-западный, З - западный, СЗ - северо-западный.
Видимость - горизонтальная дальность видимости в метрах или километрах. При видимости от 1 до 10 км при отсутствии осадков обычно наблюдается дымка, при ухудшении видимости до 1 км и менее - туман. В сухую погоду видимость может ухудшаться дымом, пылью или мглою.
Явления - указаны атмосферные явления, наблюдавшиеся в срок или в последний час перед сроком; фигурными скобками обозначены явления, наблюдавшиеся между сроками (за 1-3 часа до срока); квадратными скобками обозначены град или гололедные отложения с указанием их диаметра в мм.
Облачность - указаны через наклонную черту общая и нижняя облачность в баллах и высота нижней границы облаков в метрах; квадратными скобками обозначены формы облаков: Ci - перистые, Cs - перисто-слоистые, Cc - перисто-кучевые, Ac - высококучевые, As - высокослоистые, Sc - слоисто-кучевые, Ns - слоисто-дождевые, Cu - кучевые, Cb - кучево-дождевые. Подробнее классификацию облаков см. в Атласе облаков (PDF).
T - Температура воздуха - температура, измеренная на высоте 2 м над землей.
Td - Температура точки росы - температура, при понижении до которой содержащийся в воздухе водяной пар достигнет насыщения.
f - Относительная влажность воздуха - влажноcть воздуха, измеренная на высоте 2 м над землей.
Te - Эффективная температура - температура, которую ощущает одетый по сезону человек в тени. Характеристика душности погоды. При расчете учитывается влияние влажности воздуха и скорости ветра на теплоощущения человека.
Tes - Эффективная температура на солнце - температура, которую ощущает человек, с поправкой на солнечный нагрев. Характеристика знойности погоды. Зависит от высоты солнца над горизонтом, облачности и скорости ветра. Ночью, в пасмурную погоду, а также при ветре 12 м/с и более поправка равна нулю.
P - Атмосферное давление - приведенное к уровню моря атмосферное давление.
Po - Атмосферное давление - измеренное на уровне метеостанции атмосферное давление.
Tmin - Минимальная температура - минимум температуры воздуха на высоте 2 м над землей.
Tmax - Максимальная температура - максимум температуры воздуха на высоте 2 м над землей.
R - Количество осадков - Количество выпавших осадков за период времени, мм. При наведении курсора мыши на число - период времени, за который выпало указанное количество осадков.
R24 - Количество осадков - Количество выпавших осадков за 24 часа, мм.
S - Снежный покров - Высота снежного покрова, см. При наведении курсора мыши на число - состояние снежного покрова и степень покрытия местности в баллах.